Cambridge, United Kingdom

3:30 AM BST on October 17, 2017 (GMT +0100)
Cambridge

Weather History for EGSC - January, 2013

Change the Weather History Date:

Tuesday, January 22, 2013

  Actual Average Record
Temperature  
Mean Temperature 24 °F -  
Max Temperature 33 °F 44 °F 51 °F (2012)
Min Temperature 14 °F 35 °F 14 °F (2013)
Degree Days  
Heating Degree Days 42    
Moisture  
Dew Point 26 °F    
Average Humidity 92    
Maximum Humidity 100    
Minimum Humidity 81    
Precipitation  
Precipitation 0.00 in - - ()
Sea Level Pressure  
Sea Level Pressure 29.61 in    
Wind  
Wind Speed 2 mph ()    
Max Wind Speed 7 mph    
Max Gust Speed -    
Visibility 2.6 miles    
Events Fog    
Averages and records for this station are not official NWS values.
T = Trace of Precipitation, MM = Missing Value Source: Averaged Metar Reports

Daily Weather History Graph

Daily Weather History Graph

Search for Another Location

Airport or City:

Trip Planner

Search our weather history database for the weather conditions in past years. The results will help you decide how hot, cold, wet, or windy it might be!

Date:

Astronomy

Jan. 22, 2013 Rise Set
Actual Time 7:53 AM GMT 4:28 PM GMT
Civil Twilight 7:15 AM GMT 5:06 PM GMT
Nautical Twilight 6:33 AM GMT 5:48 PM GMT
Astronomical Twilight 5:53 AM GMT 6:28 PM GMT
Moon 12:34 PM GMT (1/22) 4:07 AM GMT (1/22)
Length of Visible Light 9h 51m
Length of Day
8h 34m
Waxing Gibbous, 81% of the Moon is Illuminated
Jan 22
Waxing Gibbous
Jan 27
Full
Feb 3
Last Quarter
Feb 10
New
Feb 17
First Quarter

Hourly Weather History & Observations

Time (GMT) Temp. Windchill Dew Point Humidity Pressure Visibility Wind Dir Wind Speed Gust Speed Precip Events Conditions
6:50 AM 15.8 °F - 14.0 °F 93% 29.56 in 0.9 mi Variable 1.2 mph - N/A   Mostly Cloudy
7:20 AM 15.8 °F - 14.0 °F 93% 29.56 in 1.2 mi Variable 1.2 mph - N/A   Mostly Cloudy
7:50 AM 14.0 °F - 12.2 °F 93% 29.56 in 1.2 mi Variable 1.2 mph - N/A   Mostly Cloudy
8:20 AM 19.4 °F 14.3 °F 17.6 °F 93% 29.56 in 1.1 mi Variable 3.5 mph - N/A   Mostly Cloudy
8:50 AM 21.2 °F - 19.4 °F 93% 29.56 in 1.1 mi Variable 2.3 mph - N/A   Mostly Cloudy
9:20 AM 21.2 °F - 19.4 °F 93% 29.59 in 1.2 mi Calm Calm - N/A   Mostly Cloudy
9:50 AM 23.0 °F - 23.0 °F 100% 29.59 in 1.4 mi Calm Calm - N/A   Scattered Clouds
10:20 AM 23.0 °F - 21.2 °F 93% 29.59 in 1.4 mi Calm Calm - N/A   Mostly Cloudy
10:50 AM 23.0 °F - 21.2 °F 93% 29.59 in 1.2 mi Variable 2.3 mph - N/A   Mostly Cloudy
11:20 AM 28.4 °F 24.6 °F 26.6 °F 93% 29.59 in 1.2 mi NNE 3.5 mph - N/A   Overcast
11:50 AM 30.2 °F - 28.4 °F 93% 29.59 in 0.1 mi Variable 1.2 mph - N/A Fog Light Freezing Fog
12:20 PM 30.2 °F - 28.4 °F 93% 29.59 in 0.1 mi NNE 2.3 mph - N/A Fog Light Freezing Fog
12:50 PM 32.0 °F 28.7 °F 30.2 °F 93% 29.59 in 0.2 mi Variable 3.5 mph - N/A Fog Light Freezing Fog
1:20 PM 30.2 °F 26.7 °F 30.2 °F 100% 29.59 in 0.6 mi North 3.5 mph - N/A Fog Light Freezing Fog
1:50 PM 30.2 °F 24.3 °F 30.2 °F 100% 29.59 in 0.9 mi North 5.8 mph - N/A   Mostly Cloudy
2:20 PM 32.0 °F 27.5 °F 30.2 °F 93% 29.59 in 0.9 mi North 4.6 mph - N/A   Mostly Cloudy
2:50 PM 32.0 °F 26.4 °F 30.2 °F 93% 29.62 in 0.9 mi North 5.8 mph - N/A   Mostly Cloudy
3:20 PM 32.0 °F 28.7 °F 30.2 °F 93% 29.62 in 3.1 mi Variable 3.5 mph - N/A   Scattered Clouds
3:50 PM 32.0 °F - 30.2 °F 93% 29.62 in 5.0 mi NNE 2.3 mph - N/A Fog Fog
4:20 PM 32.0 °F 27.5 °F 30.2 °F 93% 29.62 in 5.6 mi East 4.6 mph - N/A   Partly Cloudy
4:50 PM 33.8 °F 28.6 °F 30.2 °F 87% 29.65 in 5.6 mi East 5.8 mph - N/A   Partly Cloudy
5:20 PM 33.8 °F 29.6 °F 30.2 °F 87% 29.65 in 5.6 mi East 4.6 mph - N/A   Partly Cloudy
5:50 PM 33.8 °F 28.6 °F 30.2 °F 87% 29.65 in 5.6 mi ENE 5.8 mph - N/A   Partly Cloudy
6:50 PM 33.8 °F 27.7 °F 30.2 °F 87% 29.68 in 5.6 mi East 6.9 mph - N/A   Partly Cloudy
7:20 PM 33.8 °F 28.6 °F 30.2 °F 87% 29.68 in 5.6 mi East 5.8 mph - N/A   Unknown
7:50 PM 33.8 °F 29.6 °F 30.2 °F 87% 29.68 in 5.6 mi East 4.6 mph - N/A   Unknown
8:20 PM 32.0 °F 28.7 °F 28.4 °F 87% 29.71 in 5.6 mi Variable 3.5 mph - N/A   Unknown
8:50 PM 33.8 °F 28.6 °F 28.4 °F 81% 29.71 in 5.6 mi ENE 5.8 mph - N/A   Unknown